Location: Turtle Rock Observatory
(36.6913°N, 81.9708°W)
Time: 15:37:24
(UTC-05:00)

Daily predictions for brighter satellites

Satellite Brightness Start Highest point End
(mag) Time Altitude Azimuth Time Altitude Azimuth Time Altitude Azimuth
Cosmos 2279 Rocket 4.4 17:31:16 10° SSE 17:37:07 44° E 17:42:59 10° NNE
Lacrosse 5 2.4 17:33:08 10° NW 17:38:09 67° SW 17:43:10 10° SSE
Cosmos 1607 4.3 17:34:06 10° NNW 17:40:20 46° NE 17:46:28 10° SE
YAOGAN 1 3.6 17:38:02 10° ESE 17:41:32 24° ENE 17:45:03 10° NNE
Aureole 1 Rocket 4.5 17:36:42 10° N 17:42:12 41° ENE 17:49:07 10° SE
BREEZE-M DEB (TANK) 2.3 17:40:36 10° NW 17:42:49 69° NE 17:47:38 10° ESE
CSL-04 Debris 4.2 17:39:04 10° SSE 17:44:21 62° ENE 17:49:40 10° N
Delta 2 Rocket 4.1 17:48:48 10° WSW 17:54:21 75° S 17:59:19 10° E
NOSS 2-3 (D) 4.1 17:50:35 10° SW 17:55:05 68° NW 18:00:16 10° NNE
COSMO-SKYMED 1 3.4 17:52:34 10° NE 17:56:24 30° E 18:00:12 10° SSE
EO 1 Del DPAF 4.4 17:55:54 10° NE 17:59:01 24° E 18:02:07 10° SSE
Cosmos 990 Rocket 3.9 17:54:18 10° SSW 17:59:24 79° ESE 18:04:35 10° NNE
Atlas Centaur 2 2.8 17:56:14 10° WSW 18:00:51 35° S 18:04:39 10° ESE
CZ-2C R/B 4.4 17:56:35 10° SSW 18:01:17 35° W 18:06:01 10° NNW
Cosmos 2150 Rocket 4.1 17:58:05 10° S 18:03:32 78° ESE 18:09:00 10° NNE
USA 116 3.1 18:01:13 10° NNE 18:04:27 62° ESE 18:07:31 10° S
Cosmos 1975 Rocket 3.2 18:01:07 10° S 18:05:34 83° W 18:10:04 10° N
Okean 1 3.6 18:02:03 10° SSW 18:05:59 71° W 18:09:58 10° N
Meteor 1-28 Rocket 3.3 18:03:29 10° N 18:07:15 81° WNW 18:11:00 10° SSW
Cosmos 1743 3.1 18:04:36 10° N 18:08:16 40° E 18:11:56 10° SSE
CSL-04 Rocket 4.0 18:03:21 10° S 18:08:41 71° WSW 18:14:09 10° NNW
ATLAS CENTAUR R/B 3.4 18:05:45 10° NW 18:09:25 33° WSW 18:13:17 10° S
SPOT 3 Rocket 4.2 18:07:16 10° SE 18:11:48 31° ENE 18:16:19 10° N
Cosmos 1697 Rocket 4.2 18:10:12 10° SE 18:13:16 15° E 18:14:04 15° E
SMAP 3.4 18:09:14 10° S 18:13:52 71° WSW 18:18:31 10° NNW
SJ 16-02 2.6 18:11:36 10° SSE 18:14:55 21° E 18:16:16 19° ENE
FENGYUN 3A 4.2 18:11:28 10° SE 18:16:15 34° ENE 18:21:03 10° N
Cosmos 1655 Rocket 4.0 18:10:05 10° N 18:16:29 77° E 18:22:52 10° S
CZ-3A R/B 4.3 18:07:03 10° NW 18:17:34 58° WSW 18:23:09 10° SSE
CZ-2C R/B 3.8 18:13:27 10° NNE 18:18:08 84° WNW 18:22:52 10° SSW
Cosmos 1975 2.9 18:15:59 10° N 18:20:02 80° W 18:24:04 10° S
CZ-4 R/B 1.4 18:17:05 10° S 18:20:53 77° WSW 18:24:47 10° NNW
ATLAS 2AS CENTAUR R/B 3.0 18:13:57 10° SSW 18:21:36 87° ESE 18:29:45 10° NNE
ALOS 2.7 18:19:08 10° SE 18:23:24 37° ENE 18:27:42 10° N
SKYMED 3 4.5 18:22:14 10° NNE 18:26:34 69° E 18:30:53 10° S
ISS -1.6 18:25:20 10° N 18:26:30 13° NNE 18:26:30 13° NNE
METEOR-M 4.0 18:24:21 10° SSE 18:29:39 76° ENE 18:35:00 10° N
Landsat 4 3.9 18:28:03 10° N 18:31:53 76° WNW 18:35:40 10° SSW
Cosmos 2219 3.2 18:26:56 10° NNW 18:32:34 87° WSW 18:38:12 10° SSE
Cosmos 2227 Rocket 2.7 18:27:38 10° N 18:32:47 34° ENE 18:37:53 10° SE
Abrixas rocket 3.6 18:30:37 10° W 18:33:32 30° NNW 18:34:47 22° NNE
Cosmos 1536 Rocket 3.5 18:29:25 10° S 18:33:41 57° E 18:37:25 13° NNE
Cosmos 1271 Rocket 2.5 18:30:20 10° N 18:34:07 78° E 18:37:56 10° SSE
ATLAS 3B R/B 3.0 18:30:50 10° NNW 18:37:01 39° NE 18:41:12 19° ESE
NOAA 12 4.2 18:32:40 10° SSE 18:37:46 52° ENE 18:42:53 10° N
Cosmos 2266 Rocket 4.0 18:35:10 10° N 18:41:07 56° E 18:47:07 10° SSE
Meteor 2-9 Rocket 4.1 18:37:02 10° N 18:42:31 58° E 18:47:48 10° SSE
NOSS 3-4 (A) 4.3 18:38:01 10° SSE 18:43:07 27° ESE 18:44:08 26° E
Cosmos 158 Rocket 4.2 18:38:18 10° N 18:43:08 41° ENE 18:47:47 10° SE
NOSS 3-4 (C) 4.3 18:38:09 10° SSE 18:43:13 27° ESE 18:44:11 26° E
SKYMED 2 3.7 18:40:12 10° N 18:44:33 73° WNW 18:48:51 10° SSW
Meteor 1-13 Rocket 4.2 18:39:32 10° S 18:45:04 82° W 18:50:45 10° N
Cosmos 389 Rocket 3.5 18:43:38 10° NNW 18:47:00 46° W 18:50:19 10° S
Cosmos 1980 Rocket 4.0 18:47:58 10° SE 18:49:26 15° SE 18:49:26 15° SE
ERS-2 2.4 18:53:18 10° S 18:56:57 68° WSW 19:00:36 10° NNW
Cosmos 2297 Rocket 2.3 18:54:57 10° N 19:00:28 49° ENE 19:02:12 37° ESE
Cosmos 1125 Rocket 3.4 18:56:00 10° SSW 19:01:17 80° ESE 19:03:52 31° NNE
Meteor 2-4 Rocket 3.7 18:55:51 10° SSW 19:01:22 76° W 19:06:47 10° N
Meteor 1-15 Rocket 4.4 18:55:42 10° N 19:01:27 49° ENE 19:07:08 10° SSE
DELTA 2 R/B (1) 3.6 18:57:48 10° W 19:03:22 72° N 19:04:55 48° ENE
PSLV R/B 4.1 19:04:06 10° WSW 19:06:23 45° WSW 19:06:23 45° WSW
Cosmos 1048 Rocket 4.0 19:08:53 10° N 19:14:14 62° ENE 19:14:28 61° E
Gbstr 26 Del rocket 4.4 19:08:31 10° SSW 19:16:26 64° SE 19:18:24 48° ENE
Hubble Space Telescope 2.3 19:14:45 10° WSW 19:18:14 26° S 19:18:16 26° S
CENTAUR R/B 4.4 19:16:05 10° N 19:20:03 20° NNE 19:20:03 20° NNE
Cosmos 2369 3.9 19:17:50 10° SSW 19:23:28 69° WNW 19:25:45 37° N
Cosmos 2278 3.9 19:20:27 10° SSW 19:26:05 70° WNW 19:28:07 40° N
Cosmos 1656 3.8 19:24:37 10° SSW 19:30:12 70° WNW 19:31:37 50° N
USA 238 DEB 3.7 19:25:00 10° NNW 19:32:10 90° SW 19:36:06 30° SSE
USA 238 3.7 19:25:06 10° NNW 19:32:16 90° ENE 19:36:03 31° SSE
Delta 2 Rocket 4.1 19:31:47 10° W 19:36:19 62° WSW 19:36:19 62° WSW
FengYun 1-2 T 4.3 19:35:13 10° S 19:40:48 79° WSW 19:46:28 10° NNW
Atlas Centaur 2 3.5 19:45:26 10° WSW 19:47:40 23° SW 19:47:40 23° SW
Cosmos 1241 Rocket 4.5 19:46:30 10° SSW 19:52:37 78° W 19:52:37 78° W
SJ 16-02 3.2 19:49:33 10° SW 19:53:19 28° WNW 19:53:19 28° WNW
Cosmos 1697 Rocket 3.1 19:50:59 10° SSW 19:55:52 58° WSW 19:55:52 58° WSW
Cosmos 2082 4.3 19:55:38 10° NNW 20:00:45 52° W 20:00:45 52° W
NOSS 3-2 (A) 3.9 19:56:46 10° NNW 20:03:56 79° N 20:03:56 79° N
NOSS 3-2 (C) 4.4 20:01:06 10° NNW 20:06:37 51° N 20:06:37 51° N
Cosmos 2227 Rocket 3.9 20:11:51 10° NW 20:16:40 29° WSW 20:21:20 10° SSW
ATLAS 3B R/B 3.8 20:21:41 10° NW 20:27:34 35° WSW 20:28:37 33° SW
Cosmos 1980 Rocket 4.4 20:29:46 10° SW 20:31:17 19° SW 20:31:17 19° SW
Cosmos 2297 Rocket 4.4 20:40:04 10° NW 20:44:02 20° W 20:44:14 20° WSW
